Voltar ao catálogo

FENGYUN 1C DEB

LostPO
NORAD 38812·DEBRIS·🇨🇳 China

Lançado May 10, 1999 de Taiyuan Satellite Launch Center

Loading…

Próximas Passagens (próximas 24 horas)

TLE

ObsoletoSource: Space-Track

Época: Aug 12, 2026, 06:32 UTC

1 38812U 99025EVC 26224.27253131  .00000726  00000-0  70511-3 0  9999
2 38812  98.4197  40.9225 0258960 101.7907 261.2411 13.68206120495014

Acompanhe FENGYUN 1C DEB em tempo real com AllMySat

Download on the App Store